Regional Weather Roundup
Issued by NWS

Home | Current Version | Previous Version | Graphics & Text | Print | Product List | Glossary On
Versions: 1 2 3 4 5 6 7 8 9 10 11 12 13 14 15 16 17 18 19 20 21 22 23 24 25 26 27 28 29 30 31 32 33 34 35 36 37 38 39 40 41 42 43 44 45 46 47 48 49 50
000
ASUS43 KDTX 280310
RWRMI
MICHIGAN HOURLY REGIONAL WEATHER ROUNDUP
NATIONAL WEATHER SERVICE DETROIT/PONTIAC MI
1100 PM EDT WED AUG 27 2014

NOTE: "FAIR" INDICATES FEW OR NO CLOUDS BELOW 12,000 FEET WITH NO
SIGNIFICANT WEATHER AND/OR OBSTRUCTION TO VISIBILITY.

MIZ047>049-052>055-059>063-066>070-074>076-081>083-280400-
SOUTHEAST LOWER MICHIGAN

CITY           SKY/WX    TMP DP  RH WIND       PRES   REMARKS
ADRIAN         MOCLDY    64  60  87 CALM      30.12S
ALMA           PTCLDY    60  52  74 N3        30.15R
ANN ARBOR      MOCLDY    59  56  89 CALM      30.11S
BAD AXE        CLOUDY    59  55  84 CALM      30.14R
CARO           MOCLDY    61  55  81 E3        30.13R
DETROIT CITY   PTCLDY    66  57  72 E5        30.12R
DETROIT        MOCLDY    68  59  73 E3        30.11R
FLINT          CLOUDY    68  58  70 CALM      30.12R
GROSSE ILE     MOCLDY    66  61  82 E8        30.10R
HILLSDALE      CLOUDY    62  61  95 CALM      30.13R
HOWELL         CLOUDY    66  60  81 CALM      30.12R

CITY           SKY/WX    TMP DP  RH WIND       PRES   REMARKS
JACKSON        MOCLDY    62  60  93 CALM      30.12R
LAMBERTVILLE   CLOUDY    66  59  77 CALM      30.11S
LANSING        CLOUDY    66  60  81 N12       30.13R
LAPEER         CLOUDY    62  56  80 E3        30.13R
MASON          CLOUDY    61  60  96 CALM      30.12R
MONROE         MOCLDY    64  61  88 CALM      30.09S
MT. CLEMENS    CLOUDY    63  55  75 NE8       30.11R
PONTIAC        MOCLDY    67  57  70 E5        30.12R
PORT HOPE        N/A     64  55  72 N12       30.11F
PORT HURON     PTCLDY    54  54 100 CALM      30.13R
TRI CITIES     MOCLDY    64  52  64 N7        30.14R
TROY           MOCLDY    67  57  70 NE5       30.14R
SAGINAW HB     MOCLDY    61  55  82 NE5       30.13R
$$
MIZ043>046-050>051-056>058-064>065-071>073-077>080-280400-
SOUTHWEST LOWER MICHIGAN

CITY           SKY/WX    TMP DP  RH WIND       PRES   REMARKS
BATTLE CREEK   MOCLDY    66  60  81 N6        30.14R
BENTON HARBOR  MOCLDY    61  59  93 CALM      30.14R
BIG RAPIDS     CLEAR     55  54  95 CALM      30.15R
COLDWATER      CLOUDY    65  62  90 CALM      30.12S
FREMONT        FAIR      58  52  80 N3        30.15R
HOLLAND        PTCLDY    66  54  65 NE3       30.15R
GRAND RAPIDS   PTCLDY    64  59  83 N6        30.15R
IONIA          FAIR      63  57  80 N7        30.14R
KALAMAZOO      MOCLDY    64  58  80 N6        30.13S
LUDINGTON      CLEAR     55  53  95 CALM      30.16R
MARSHALL       MOCLDY    62  60  95 CALM      30.12S
MOUNT PLEASANT CLEAR     59  51  75 N6        30.15R
MUSKEGON       PTCLDY    63  53  70 CALM      30.15R
SOUTH HAVEN    PTCLDY    61  59  94 CALM      30.14R
$$
MIZ016>042-280400-
NORTHERN LOWER MICHIGAN

CITY           SKY/WX    TMP DP  RH WIND       PRES   REMARKS
ALPENA         CLEAR     53  47  79 NW3       30.15S
BEAVER ISLAND  CLEAR     49  47  90 CALM      30.18S
BELLAIRE       CLEAR     51  49  95 CALM      30.16S
CADILLAC       CLEAR     49  48  96 CALM      30.16S
CHARLEVOIX     PTCLDY    60  46  58 NE5       30.19F
FRANKFORT      CLEAR     53  49  86 CALM      30.15S
GAYLORD        CLEAR     55  45  68 VRB5      30.17R
GRAYLING       CLEAR     49  48  97 CALM      30.17S
HARBOR SPRINGS CLEAR     52  47  83 N5        30.16F
HOUGHTON LAKE  CLEAR     50  48  93 CALM      30.16S
MANISTEE       CLEAR     52  48  87 CALM      30.16R
OSCODA         CLEAR     55  49  80 NW3       30.13S
PELLSTON       CLEAR     46  44  93 CALM      30.17S
ROGERS CITY    CLEAR     57  46  67 NW9       30.16R
TRAVERSE CITY  CLEAR     55  49  80 CALM      30.15S
$$
MIZ007>008-015-280400-
EASTERN UPPER MICHIGAN

CITY           SKY/WX    TMP DP  RH WIND       PRES   REMARKS
KINROSS        CLEAR     52  48  87 W5        30.15S
MACKINAC ISLAN CLEAR     49  46  87 N5        30.16S
NEWBERRY       CLEAR     45  42  88 W3        30.16S
S. S. MARIE    CLEAR     54  46  74 NW8       30.14F
MUNISING         N/A     49  44  83 S7        30.16F
$$
MIZ004>006-011>014-085-280400-
CENTRAL UPPER MICHIGAN

CITY           SKY/WX    TMP DP  RH WIND       PRES   REMARKS
MANISTIQUE     CLEAR     46  44  93 CALM      30.17S
ESCANABA       CLEAR     57  45  62 CALM      30.17R
MENOMINEE      PTCLDY    57  55  94 CALM      30.13S
SAWYER-GWINN   CLEAR     50  44  79 CALM      30.18S
$$
MIZ001>003-009>011-084-280400-
WESTERN UPPER MICHIGAN

CITY           SKY/WX    TMP DP  RH WIND       PRES   REMARKS
IRON MOUNTAIN  CLEAR     56  48  74 N5        30.16R
HOUGHTON       CLEAR     47  44  90 NW6       30.17S
COPPER HARBOR    N/A     54  45  71 SW5       30.16S
$$

ABBREVIATIONS USED IN REMARKS
   TC - TEMPERATURE IN CELSIUS
  WCI - WIND CHILL INDEX
   HX - HEAT INDEX
  VSB - VISIBILITY



USA.gov is the U.S. government's official web portal to all federal, state and local government web resources and services.